| time (UTC) | temp F | wind direction | speed MPH | gust MPH | rain 1hr in | rain 24hr in | rain mn in | humidity % | barometer mb |
| 20260507195501 | 62 | 5 | 0.0 | 1.0 | 0.00 | 0.00 | 0.00 | 77 | 1016.1 |
| 20260507195003 | 62 | 5 | 0.0 | 0.0 | 0.00 | 0.00 | 0.00 | 77 | 1016.1 |
| 20260507194002 | 62 | 5 | 0.0 | 1.0 | 0.00 | 0.00 | 0.00 | 77 | 1016.0 |
| 20260507193503 | 62 | 5 | 0.0 | 1.0 | 0.00 | 0.00 | 0.00 | 76 | 1015.9 |
| 20260507193001 | 62 | 5 | 0.0 | 1.0 | 0.00 | 0.00 | 0.00 | 76 | 1015.8 |
| 20260507192503 | 62 | 5 | 0.0 | 1.0 | 0.00 | 0.00 | 0.00 | 76 | 1015.9 |
| 20260507192003 | 63 | 5 | 1.0 | 3.0 | 0.00 | 0.00 | 0.00 | 76 | 1015.9 |
| 20260507191502 | 63 | 5 | 1.0 | 3.0 | 0.00 | 0.00 | 0.00 | 76 | 1015.8 |
| 20260507190503 | 63 | 5 | 1.0 | 3.0 | 0.00 | 0.00 | 0.00 | 76 | 1015.8 |
| 20260507190005 | 63 | 10 | 1.0 | 3.0 | 0.00 | 0.00 | 0.00 | 76 | 1015.8 |
| 20260507185500 | 63 | 10 | 0.0 | 3.0 | 0.00 | 0.00 | 0.00 | 75 | 1015.8 |
| 20260507185000 | 63 | 5 | 0.0 | 3.0 | 0.00 | 0.00 | 0.00 | 75 | 1015.8 |
| 20260507184501 | 63 | 16 | 0.0 | 3.0 | 0.00 | 0.00 | 0.00 | 75 | 1015.8 |
| 20260507184003 | 63 | 274 | 0.0 | 0.0 | 0.00 | 0.00 | 0.00 | 75 | 1015.7 |
| 20260507183504 | 63 | 274 | 0.0 | 0.0 | 0.00 | 0.00 | 0.00 | 75 | 1015.7 |
| 20260507182503 | 64 | 274 | 0.0 | 0.0 | 0.00 | 0.00 | 0.00 | 75 | 1015.8 |
| 20260507182003 | 64 | 274 | 0.0 | 0.0 | 0.00 | 0.00 | 0.00 | 74 | 1015.7 |
| 20260507181003 | 64 | 274 | 1.0 | 4.0 | 0.00 | 0.00 | 0.00 | 73 | 1015.8 |
| 20260507180503 | 64 | 294 | 2.0 | 5.0 | 0.00 | 0.00 | 0.00 | 73 | 1015.8 |
| 20260507175500 | 64 | 298 | 1.0 | 5.0 | 0.00 | 0.00 | 0.00 | 73 | 1015.8 |
| 20260507175003 | 65 | 276 | 1.0 | 4.0 | 0.00 | 0.00 | 0.00 | 74 | 1015.8 |
| 20260507174503 | 65 | 275 | 1.0 | 4.0 | 0.00 | 0.00 | 0.00 | 74 | 1015.8 |
| 20260507174003 | 65 | 285 | 1.0 | 4.0 | 0.00 | 0.00 | 0.00 | 73 | 1015.8 |
| 20260507173000 | 65 | 294 | 2.0 | 4.0 | 0.00 | 0.00 | 0.00 | 73 | 1015.6 |
| 20260507172500 | 66 | 275 | 2.0 | 4.0 | 0.00 | 0.00 | 0.00 | 72 | 1015.6 |
| 20260507171003 | 66 | 258 | 2.0 | 3.0 | 0.00 | 0.00 | 0.00 | 71 | 1015.5 |
| 20260507170502 | 66 | 232 | 3.0 | 4.0 | 0.00 | 0.00 | 0.00 | 71 | 1015.4 |
| 20260507170003 | 67 | 246 | 3.0 | 6.0 | 0.00 | 0.00 | 0.00 | 71 | 1015.5 |
| 20260507165503 | 67 | 264 | 3.0 | 5.0 | 0.00 | 0.00 | 0.00 | 71 | 1015.5 |
| 20260507165000 | 67 | 264 | 2.0 | 3.0 | 0.00 | 0.00 | 0.00 | 69 | 1015.6 |
| 20260507164502 | 67 | 257 | 1.0 | 3.0 | 0.00 | 0.00 | 0.00 | 69 | 1015.3 |
| 20260507164001 | 68 | 281 | 1.0 | 3.0 | 0.00 | 0.00 | 0.00 | 68 | 1015.3 |
| 20260507163503 | 68 | 289 | 0.0 | 2.0 | 0.00 | 0.00 | 0.00 | 68 | 1015.2 |
| 20260507163003 | 68 | 279 | 1.0 | 6.0 | 0.00 | 0.00 | 0.00 | 67 | 1015.1 |
| 20260507162503 | 68 | 293 | 2.0 | 6.0 | 0.00 | 0.00 | 0.00 | 66 | 1015.2 |
| 20260507162003 | 68 | 287 | 2.0 | 4.0 | 0.00 | 0.00 | 0.00 | 66 | 1015.2 |
| 20260507161502 | 69 | 292 | 2.0 | 4.0 | 0.00 | 0.00 | 0.00 | 66 | 1015.1 |
| 20260507161003 | 69 | 286 | 2.0 | 4.0 | 0.00 | 0.00 | 0.00 | 65 | 1015.1 |
| 20260507160513 | 69 | 266 | 2.0 | 3.0 | 0.00 | 0.00 | 0.00 | 65 | 1015.1 |
| 20260507160004 | 69 | 250 | 2.0 | 4.0 | 0.00 | 0.00 | 0.00 | 65 | 1015.1 |
| 20260507155500 | 69 | 290 | 2.0 | 4.0 | 0.00 | 0.00 | 0.00 | 65 | 1015.1 |
| 20260507154503 | 70 | 259 | 3.0 | 9.0 | 0.00 | 0.00 | 0.00 | 63 | 1015.2 |
| 20260507154003 | 70 | 265 | 4.0 | 9.0 | 0.00 | 0.00 | 0.00 | 63 | 1015.2 |
| 20260507153003 | 70 | 270 | 4.0 | 9.0 | 0.00 | 0.00 | 0.00 | 63 | 1015.0 |
| 20260507152003 | 70 | 243 | 6.0 | 12.0 | 0.00 | 0.00 | 0.00 | 62 | 1015.1 |
| 20260507151502 | 70 | 250 | 6.0 | 12.0 | 0.00 | 0.00 | 0.00 | 61 | 1015.2 |
| 20260507151003 | 70 | 253 | 4.0 | 10.0 | 0.00 | 0.00 | 0.00 | 60 | 1015.2 |
| 20260507150503 | 71 | 269 | 4.0 | 9.0 | 0.00 | 0.00 | 0.00 | 62 | 1015.2 |
| 20260507150005 | 71 | 243 | 4.0 | 9.0 | 0.00 | 0.00 | 0.00 | 62 | 1015.1 |
| 20260507145503 | 71 | 254 | 1.0 | 7.0 | 0.00 | 0.00 | 0.00 | 63 | 1015.1 |
| 20260507145002 | 71 | 255 | 1.0 | 4.0 | 0.00 | 0.00 | 0.00 | 65 | 1015.0 |
| 20260507144500 | 71 | 269 | 2.0 | 4.0 | 0.00 | 0.00 | 0.00 | 63 | 1015.1 |
| 20260507144002 | 71 | 308 | 2.0 | 4.0 | 0.00 | 0.00 | 0.00 | 62 | 1015.1 |
| 20260507143500 | 71 | 246 | 2.0 | 7.0 | 0.00 | 0.00 | 0.00 | 63 | 1015.1 |
| 20260507143000 | 71 | 284 | 3.0 | 9.0 | 0.00 | 0.00 | 0.00 | 63 | 1015.0 |
| 20260507142502 | 72 | 241 | 3.0 | 9.0 | 0.00 | 0.00 | 0.00 | 62 | 1015.0 |
| 20260507142003 | 72 | 273 | 3.0 | 7.0 | 0.00 | 0.00 | 0.00 | 63 | 1015.1 |
| 20260507141500 | 72 | 264 | 3.0 | 7.0 | 0.00 | 0.00 | 0.00 | 62 | 1015.2 |
| 20260507141000 | 71 | 294 | 3.0 | 5.0 | 0.00 | 0.00 | 0.00 | 63 | 1015.3 |
| 20260507140000 | 70 | 284 | 2.0 | 5.0 | 0.00 | 0.00 | 0.00 | 65 | 1015.4 |
| 20260507135502 | 70 | 277 | 3.0 | 5.0 | 0.00 | 0.00 | 0.00 | 63 | 1015.4 |
| 20260507135003 | 70 | 252 | 3.0 | 7.0 | 0.00 | 0.00 | 0.00 | 64 | 1015.4 |
| 20260507134500 | 70 | 259 | 4.0 | 8.0 | 0.00 | 0.00 | 0.00 | 63 | 1015.4 |
| 20260507134003 | 70 | 257 | 5.0 | 10.0 | 0.00 | 0.00 | 0.00 | 65 | 1015.5 |
| 20260507133003 | 70 | 232 | 4.0 | 10.0 | 0.00 | 0.00 | 0.00 | 64 | 1015.5 |
| 20260507132003 | 70 | 267 | 4.0 | 9.0 | 0.00 | 0.00 | 0.00 | 65 | 1015.5 |
| 20260507131503 | 70 | 254 | 3.0 | 7.0 | 0.00 | 0.00 | 0.00 | 64 | 1015.5 |
| 20260507130503 | 70 | 270 | 4.0 | 8.0 | 0.00 | 0.00 | 0.00 | 64 | 1015.6 |
| 20260507125500 | 70 | 244 | 2.0 | 7.0 | 0.00 | 0.00 | 0.00 | 62 | 1015.6 |
| 20260507125001 | 71 | 262 | 3.0 | 9.0 | 0.00 | 0.00 | 0.00 | 61 | 1015.6 |
| 20260507124501 | 71 | 273 | 4.0 | 9.0 | 0.00 | 0.00 | 0.00 | 61 | 1015.6 |
| 20260507124000 | 72 | 236 | 3.0 | 8.0 | 0.00 | 0.00 | 0.00 | 60 | 1015.6 |
| 20260507123500 | 72 | 293 | 4.0 | 8.0 | 0.00 | 0.00 | 0.00 | 60 | 1015.6 |
| 20260507123000 | 72 | 219 | 5.0 | 10.0 | 0.00 | 0.00 | 0.00 | 57 | 1015.5 |
| 20260507122459 | 73 | 257 | 5.0 | 10.0 | 0.00 | 0.00 | 0.00 | 58 | 1015.6 |
| 20260507122000 | 73 | 250 | 5.0 | 10.0 | 0.00 | 0.00 | 0.00 | 57 | 1015.6 |
| 20260507121500 | 74 | 251 | 4.0 | 8.0 | 0.00 | 0.00 | 0.00 | 55 | 1015.7 |
| 20260507120459 | 75 | 246 | 4.0 | 8.0 | 0.00 | 0.00 | 0.00 | 54 | 1015.8 |
| 20260507115502 | 74 | 271 | 3.0 | 9.0 | 0.00 | 0.00 | 0.00 | 56 | 1015.8 |
| 20260507115003 | 74 | 232 | 3.0 | 9.0 | 0.00 | 0.00 | 0.00 | 55 | 1015.9 |
| 20260507114503 | 74 | 327 | 3.0 | 10.0 | 0.00 | 0.00 | 0.00 | 53 | 1016.0 |
| 20260507113500 | 73 | 222 | 2.0 | 7.0 | 0.00 | 0.00 | 0.00 | 55 | 1015.8 |
| 20260507113003 | 73 | 200 | 2.0 | 8.0 | 0.00 | 0.00 | 0.00 | 55 | 1015.8 |
| 20260507112503 | 73 | 227 | 2.0 | 8.0 | 0.00 | 0.00 | 0.00 | 56 | 1015.8 |
| 20260507112003 | 73 | 247 | 2.0 | 5.0 | 0.00 | 0.00 | 0.00 | 57 | 1015.9 |
| 20260507111503 | 72 | 51 | 1.0 | 3.0 | 0.00 | 0.00 | 0.00 | 56 | 1015.9 |
| 20260507111003 | 71 | 170 | 1.0 | 3.0 | 0.00 | 0.00 | 0.00 | 56 | 1015.9 |
| 20260507110503 | 71 | 252 | 1.0 | 4.0 | 0.00 | 0.00 | 0.00 | 57 | 1015.9 |
| 20260507110005 | 71 | 13 | 2.0 | 5.0 | 0.00 | 0.00 | 0.00 | 57 | 1015.9 |
| 20260507105504 | 71 | 273 | 3.0 | 8.0 | 0.00 | 0.00 | 0.00 | 57 | 1016.0 |
| 20260507105003 | 70 | 281 | 2.0 | 8.0 | 0.00 | 0.00 | 0.00 | 60 | 1016.1 |
| 20260507104502 | 70 | 182 | 2.0 | 7.0 | 0.00 | 0.00 | 0.00 | 60 | 1016.1 |
| 20260507104004 | 69 | 234 | 2.0 | 7.0 | 0.00 | 0.00 | 0.00 | 60 | 1016.1 |
| 20260507103503 | 69 | 185 | 4.0 | 10.0 | 0.00 | 0.00 | 0.00 | 59 | 1016.0 |
| 20260507103003 | 69 | 244 | 3.0 | 10.0 | 0.00 | 0.00 | 0.00 | 61 | 1016.0 |
| 20260507102503 | 68 | 240 | 1.0 | 4.0 | 0.00 | 0.00 | 0.00 | 66 | 1016.1 |
| 20260507102002 | 67 | 279 | 1.0 | 5.0 | 0.00 | 0.00 | 0.00 | 66 | 1016.1 |
| 20260507101503 | 66 | 250 | 1.0 | 5.0 | 0.00 | 0.00 | 0.00 | 68 | 1016.2 |
| 20260507101003 | 66 | 260 | 2.0 | 4.0 | 0.00 | 0.00 | 0.00 | 68 | 1016.3 |
| 20260507100503 | 65 | 225 | 2.0 | 4.0 | 0.00 | 0.00 | 0.00 | 67 | 1016.3 |
| 20260507100003 | 65 | 140 | 1.0 | 4.0 | 0.00 | 0.00 | 0.00 | 69 | 1016.4 |
| 20260507095502 | 65 | 140 | 0.0 | 4.0 | 0.00 | 0.00 | 0.00 | 68 | 1016.4 |
| 20260507095002 | 64 | 157 | 1.0 | 3.0 | 0.00 | 0.00 | 0.00 | 71 | 1016.4 |
| 20260507094503 | 64 | 227 | 0.0 | 3.0 | 0.00 | 0.00 | 0.00 | 71 | 1016.5 |
| 20260507093001 | 64 | 157 | 1.0 | 3.0 | 0.00 | 0.00 | 0.00 | 70 | 1016.5 |
| 20260507092004 | 63 | 186 | 0.0 | 2.0 | 0.00 | 0.00 | 0.00 | 71 | 1016.4 |
| 20260507091503 | 63 | 215 | 0.0 | 1.0 | 0.00 | 0.00 | 0.00 | 71 | 1016.4 |
| 20260507091002 | 63 | 232 | 0.0 | 3.0 | 0.00 | 0.00 | 0.00 | 71 | 1016.5 |
| 20260507090503 | 63 | 146 | 0.0 | 3.0 | 0.00 | 0.00 | 0.00 | 71 | 1016.4 |
| 20260507090000 | 63 | 152 | 0.0 | 3.0 | 0.00 | 0.00 | 0.00 | 71 | 1016.4 |
| 20260507085003 | 63 | 211 | 0.0 | 3.0 | 0.00 | 0.00 | 0.00 | 68 | 1016.3 |
| 20260507084503 | 63 | 213 | 1.0 | 3.0 | 0.00 | 0.00 | 0.00 | 70 | 1016.3 |
| 20260507084011 | 63 | 148 | 1.0 | 4.0 | 0.00 | 0.00 | 0.00 | 69 | 1016.3 |
| 20260507082503 | 63 | 206 | 1.0 | 4.0 | 0.00 | 0.00 | 0.00 | 73 | 1016.3 |
| 20260507082003 | 63 | 196 | 1.0 | 4.0 | 0.00 | 0.00 | 0.00 | 73 | 1016.4 |
| 20260507081504 | 62 | 209 | 2.0 | 6.0 | 0.00 | 0.00 | 0.00 | 73 | 1016.3 |
| 20260507081003 | 62 | 213 | 3.0 | 6.0 | 0.00 | 0.00 | 0.00 | 71 | 1016.4 |
| 20260507080501 | 62 | 227 | 3.0 | 6.0 | 0.00 | 0.00 | 0.00 | 73 | 1016.3 |
| 20260507080000 | 62 | 226 | 3.0 | 5.0 | 0.00 | 0.00 | 0.00 | 72 | 1016.3 |
| 20260507075500 | 63 | 217 | 2.0 | 5.0 | 0.00 | 0.00 | 0.00 | 72 | 1016.4 |
| 20260507075000 | 63 | 199 | 1.0 | 4.0 | 0.00 | 0.00 | 0.00 | 72 | 1016.4 |
| 20260507074500 | 63 | 244 | 1.0 | 4.0 | 0.00 | 0.00 | 0.00 | 72 | 1016.3 |
| 20260507074003 | 63 | 220 | 1.0 | 4.0 | 0.00 | 0.00 | 0.00 | 73 | 1016.3 |
| 20260507073500 | 63 | 219 | 1.0 | 6.0 | 0.00 | 0.00 | 0.00 | 73 | 1016.2 |
| 20260507073003 | 62 | 237 | 2.0 | 6.0 | 0.00 | 0.00 | 0.00 | 73 | 1016.2 |
| 20260507072503 | 62 | 221 | 2.0 | 4.0 | 0.00 | 0.00 | 0.00 | 75 | 1016.2 |
| 20260507071003 | 61 | 240 | 3.0 | 5.0 | 0.00 | 0.00 | 0.00 | 77 | 1016.2 |
| 20260507070006 | 61 | 247 | 3.0 | 6.0 | 0.00 | 0.00 | 0.00 | 77 | 1016.2 |
| 20260507065506 | 61 | 217 | 3.0 | 6.0 | 0.00 | 0.00 | 0.00 | 77 | 1016.4 |
| 20260507065003 | 61 | 222 | 3.0 | 7.0 | 0.00 | 0.00 | 0.00 | 76 | 1016.4 |
| 20260507064503 | 61 | 229 | 3.0 | 7.0 | 0.00 | 0.00 | 0.00 | 76 | 1016.3 |
| 20260507064003 | 61 | 236 | 3.0 | 7.0 | 0.00 | 0.00 | 0.00 | 76 | 1016.3 |
| 20260507063500 | 61 | 227 | 3.0 | 7.0 | 0.00 | 0.00 | 0.00 | 77 | 1016.3 |
| 20260507063004 | 61 | 232 | 3.0 | 6.0 | 0.00 | 0.00 | 0.00 | 76 | 1016.3 |
| 20260507062503 | 61 | 190 | 3.0 | 8.0 | 0.00 | 0.00 | 0.00 | 76 | 1016.2 |
| 20260507062004 | 61 | 233 | 4.0 | 9.0 | 0.00 | 0.00 | 0.00 | 76 | 1016.1 |
| 20260507061503 | 61 | 220 | 3.0 | 9.0 | 0.00 | 0.00 | 0.00 | 76 | 1016.1 |
| 20260507061001 | 61 | 249 | 3.0 | 6.0 | 0.00 | 0.00 | 0.00 | 76 | 1016.1 |
| 20260507060503 | 61 | 203 | 2.0 | 6.0 | 0.00 | 0.00 | 0.00 | 75 | 1016.1 |
| 20260507060004 | 61 | 209 | 1.0 | 4.0 | 0.00 | 0.00 | 0.00 | 75 | 1016.1 |
| 20260507055502 | 61 | 223 | 1.0 | 4.0 | 0.00 | 0.00 | 0.00 | 75 | 1016.2 |
| 20260507055002 | 62 | 223 | 0.0 | 2.0 | 0.00 | 0.00 | 0.00 | 74 | 1016.1 |
| 20260507054503 | 62 | 200 | 1.0 | 3.0 | 0.00 | 0.00 | 0.00 | 75 | 1016.1 |
| 20260507054003 | 62 | 229 | 1.0 | 8.0 | 0.00 | 0.00 | 0.00 | 75 | 1016.1 |
| 20260507053459 | 62 | 202 | 1.0 | 6.0 | 0.00 | 0.00 | 0.00 | 75 | 1016.1 |
| 20260507053004 | 62 | 205 | 1.0 | 7.0 | 0.00 | 0.00 | 0.00 | 75 | 1016.1 |
| 20260507052500 | 61 | 158 | 2.0 | 4.0 | 0.00 | 0.00 | 0.00 | 76 | 1015.9 |
| 20260507052000 | 61 | 139 | 1.0 | 4.0 | 0.00 | 0.00 | 0.00 | 77 | 1015.9 |
| 20260507051000 | 61 | 152 | 1.0 | 4.0 | 0.00 | 0.00 | 0.00 | 76 | 1015.9 |
| 20260507050503 | 61 | 162 | 1.0 | 5.0 | 0.00 | 0.00 | 0.00 | 76 | 1015.7 |
| 20260507050003 | 60 | 155 | 1.0 | 5.0 | 0.00 | 0.00 | 0.00 | 75 | 1015.8 |
| 20260507045004 | 60 | 147 | 0.0 | 3.0 | 0.00 | 0.00 | 0.00 | 76 | 1015.7 |
| 20260507043959 | 60 | 213 | 0.0 | 2.0 | 0.00 | 0.00 | 0.00 | 77 | 1015.7 |
| 20260507043504 | 60 | 213 | 1.0 | 4.0 | 0.00 | 0.00 | 0.00 | 77 | 1015.7 |
| 20260507043000 | 60 | 210 | 2.0 | 4.0 | 0.00 | 0.00 | 0.00 | 76 | 1015.7 |
| 20260507042503 | 60 | 244 | 2.0 | 4.0 | 0.00 | 0.00 | 0.00 | 75 | 1015.7 |
| 20260507041959 | 60 | 215 | 1.0 | 3.0 | 0.00 | 0.00 | 0.00 | 75 | 1015.6 |
| 20260507041500 | 61 | 218 | 1.0 | 3.0 | 0.00 | 0.00 | 0.00 | 75 | 1015.4 |
| 20260507041000 | 61 | 225 | 2.0 | 5.0 | 0.00 | 0.00 | 0.00 | 75 | 1015.3 |
| 20260507040504 | 61 | 217 | 2.0 | 5.0 | 0.00 | 0.00 | 0.00 | 75 | 1015.4 |
| 20260507040002 | 61 | 211 | 1.0 | 4.0 | 0.00 | 0.00 | 0.00 | 75 | 1015.3 |
| 20260507035500 | 61 | 216 | 0.0 | 4.0 | 0.00 | 0.00 | 0.00 | 75 | 1015.2 |
| 20260507035000 | 61 | 138 | 1.0 | 3.0 | 0.00 | 0.00 | 0.00 | 76 | 1015.1 |
| 20260507034502 | 61 | 138 | 2.0 | 4.0 | 0.00 | 0.00 | 0.00 | 76 | 1015.2 |
| 20260507034002 | 61 | 173 | 1.0 | 4.0 | 0.00 | 0.00 | 0.00 | 77 | 1015.0 |
| 20260507033459 | 60 | 142 | 1.0 | 3.0 | 0.00 | 0.00 | 0.00 | 77 | 1014.9 |
| 20260507033002 | 60 | 142 | 1.0 | 3.0 | 0.00 | 0.00 | 0.00 | 78 | 1015.0 |
| 20260507032000 | 60 | 223 | 0.0 | 1.0 | 0.00 | 0.00 | 0.00 | 79 | 1014.9 |
| 20260507031500 | 61 | 223 | 0.0 | 1.0 | 0.00 | 0.00 | 0.00 | 79 | 1014.8 |
| 20260507031000 | 61 | 223 | 0.0 | 1.0 | 0.00 | 0.00 | 0.00 | 79 | 1014.8 |
| 20260507030005 | 61 | 223 | 0.0 | 1.0 | 0.00 | 0.00 | 0.00 | 79 | 1014.8 |
| 20260507025000 | 61 | 223 | 1.0 | 3.0 | 0.00 | 0.00 | 0.00 | 79 | 1014.6 |
| 20260507024459 | 61 | 223 | 2.0 | 3.0 | 0.00 | 0.00 | 0.00 | 79 | 1014.6 |
| 20260507024000 | 61 | 234 | 1.0 | 3.0 | 0.00 | 0.00 | 0.00 | 79 | 1014.6 |
| 20260507023502 | 61 | 229 | 0.0 | 2.0 | 0.00 | 0.00 | 0.00 | 79 | 1014.6 |
| 20260507022959 | 61 | 240 | 0.0 | 1.0 | 0.00 | 0.00 | 0.00 | 79 | 1014.5 |
| 20260507022459 | 61 | 240 | 0.0 | 0.0 | 0.00 | 0.00 | 0.00 | 79 | 1014.4 |
| 20260507022003 | 61 | 240 | 0.0 | 1.0 | 0.00 | 0.00 | 0.00 | 79 | 1014.3 |
| 20260507021500 | 61 | 240 | 1.0 | 3.0 | 0.00 | 0.00 | 0.00 | 79 | 1014.3 |
| 20260507021000 | 61 | 241 | 2.0 | 4.0 | 0.00 | 0.00 | 0.00 | 79 | 1014.3 |
| 20260507020500 | 61 | 250 | 2.0 | 4.0 | 0.00 | 0.00 | 0.00 | 79 | 1014.3 |
| 20260507020003 | 61 | 262 | 2.0 | 4.0 | 0.00 | 0.00 | 0.00 | 80 | 1014.3 |
| 20260507015500 | 61 | 266 | 1.0 | 3.0 | 0.00 | 0.00 | 0.00 | 79 | 1014.2 |
| 20260507014959 | 61 | 263 | 0.0 | 2.0 | 0.00 | 0.00 | 0.00 | 79 | 1014.1 |
| 20260507014502 | 61 | 292 | 0.0 | 2.0 | 0.00 | 0.00 | 0.00 | 79 | 1014.2 |
| 20260507014000 | 61 | 292 | 0.0 | 2.0 | 0.00 | 0.00 | 0.00 | 78 | 1014.1 |
| 20260507013500 | 61 | 292 | 1.0 | 2.0 | 0.00 | 0.00 | 0.00 | 78 | 1014.0 |
| 20260507013003 | 61 | 292 | 0.0 | 2.0 | 0.00 | 0.00 | 0.00 | 78 | 1014.1 |
| 20260507012502 | 61 | 292 | 0.0 | 2.0 | 0.00 | 0.00 | 0.00 | 78 | 1014.1 |
| 20260507011959 | 61 | 290 | 0.0 | 3.0 | 0.00 | 0.00 | 0.00 | 78 | 1014.0 |
| 20260507011459 | 61 | 294 | 0.0 | 1.0 | 0.00 | 0.00 | 0.00 | 77 | 1013.9 |
| 20260507011002 | 61 | 296 | 0.0 | 1.0 | 0.00 | 0.00 | 0.00 | 77 | 1014.1 |
| 20260507010503 | 61 | 296 | 0.0 | 1.0 | 0.00 | 0.00 | 0.00 | 76 | 1013.9 |
| 20260507010003 | 61 | 296 | 0.0 | 1.0 | 0.00 | 0.00 | 0.00 | 76 | 1013.8 |
| 20260507005502 | 61 | 252 | 1.0 | 3.0 | 0.00 | 0.00 | 0.00 | 76 | 1013.8 |
| 20260507005002 | 62 | 252 | 2.0 | 3.0 | 0.00 | 0.00 | 0.00 | 75 | 1013.9 |
| 20260507004503 | 62 | 252 | 1.0 | 3.0 | 0.00 | 0.00 | 0.00 | 74 | 1013.9 |
| 20260507004002 | 62 | 295 | 0.0 | 2.0 | 0.00 | 0.00 | 0.00 | 74 | 1013.9 |
| 20260507003459 | 62 | 284 | 0.0 | 2.0 | 0.00 | 0.00 | 0.00 | 73 | 1013.8 |
| 20260507003003 | 62 | 285 | 0.0 | 2.0 | 0.00 | 0.00 | 0.00 | 72 | 1013.9 |
| 20260507002501 | 63 | 295 | 0.0 | 2.0 | 0.00 | 0.00 | 0.00 | 72 | 1013.9 |
| 20260507002003 | 63 | 248 | 1.0 | 4.0 | 0.00 | 0.00 | 0.00 | 71 | 1013.9 |
| 20260507001502 | 63 | 286 | 2.0 | 4.0 | 0.00 | 0.00 | 0.00 | 71 | 1013.8 |
| 20260507001000 | 63 | 289 | 2.0 | 3.0 | 0.00 | 0.00 | 0.00 | 70 | 1013.9 |
| 20260507000502 | 64 | 276 | 2.0 | 3.0 | 0.00 | 0.00 | 0.00 | 69 | 1014.0 |
| 20260507000000 | 64 | 257 | 2.0 | 4.0 | 0.00 | 0.00 | 0.00 | 69 | 1013.9 |
| 20260506235500 | 64 | 280 | 2.0 | 5.0 | 0.00 | 0.00 | 0.00 | 68 | 1013.9 |
| 20260506234000 | 65 | 263 | 3.0 | 5.0 | 0.00 | 0.00 | 0.00 | 66 | 1013.9 |
| 20260506233500 | 65 | 261 | 3.0 | 9.0 | 0.00 | 0.00 | 0.00 | 66 | 1013.9 |
| 20260506232959 | 66 | 283 | 4.0 | 8.0 | 0.00 | 0.00 | 0.00 | 66 | 1013.9 |
| 20260506231459 | 66 | 269 | 4.0 | 9.0 | 0.00 | 0.00 | 0.00 | 64 | 1013.8 |
| 20260506230959 | 66 | 266 | 3.0 | 9.0 | 0.00 | 0.00 | 0.00 | 64 | 1013.8 |
| 20260506230500 | 66 | 267 | 3.0 | 6.0 | 0.00 | 0.00 | 0.00 | 63 | 1013.8 |
| 20260506230003 | 66 | 265 | 3.0 | 7.0 | 0.00 | 0.00 | 0.00 | 62 | 1013.7 |
| 20260506225502 | 66 | 271 | 3.0 | 7.0 | 0.00 | 0.00 | 0.00 | 62 | 1013.6 |
| 20260506225000 | 66 | 319 | 3.0 | 9.0 | 0.00 | 0.00 | 0.00 | 61 | 1013.6 |
| 20260506224458 | 66 | 252 | 3.0 | 8.0 | 0.00 | 0.00 | 0.00 | 61 | 1013.5 |
| 20260506223503 | 66 | 265 | 5.0 | 10.0 | 0.00 | 0.00 | 0.00 | 61 | 1013.3 |
| 20260506222958 | 67 | 257 | 4.0 | 8.0 | 0.00 | 0.00 | 0.00 | 60 | 1013.1 |
| 20260506222459 | 66 | 219 | 4.0 | 7.0 | 0.00 | 0.00 | 0.00 | 60 | 1013.0 |
| 20260506222000 | 66 | 216 | 3.0 | 7.0 | 0.00 | 0.00 | 0.00 | 60 | 1013.1 |
| 20260506221502 | 66 | 213 | 2.0 | 6.0 | 0.00 | 0.00 | 0.00 | 60 | 1013.0 |
| 20260506221001 | 66 | 207 | 2.0 | 4.0 | 0.00 | 0.00 | 0.00 | 60 | 1013.1 |
| 20260506220459 | 67 | 219 | 3.0 | 5.0 | 0.00 | 0.00 | 0.00 | 60 | 1013.0 |
| 20260506220003 | 67 | 207 | 3.0 | 5.0 | 0.00 | 0.00 | 0.00 | 60 | 1013.0 |
| 20260506215503 | 67 | 245 | 3.0 | 5.0 | 0.00 | 0.00 | 0.00 | 60 | 1013.0 |
| 20260506214503 | 67 | 211 | 3.0 | 5.0 | 0.00 | 0.00 | 0.00 | 59 | 1012.8 |
| 20260506214003 | 67 | 225 | 3.0 | 4.0 | 0.00 | 0.00 | 0.00 | 59 | 1012.7 |
| 20260506213003 | 67 | 257 | 3.0 | 4.0 | 0.00 | 0.00 | 0.00 | 59 | 1012.7 |
| 20260506212503 | 67 | 243 | 3.0 | 5.0 | 0.00 | 0.00 | 0.00 | 59 | 1012.6 |
| 20260506212003 | 67 | 242 | 3.0 | 5.0 | 0.00 | 0.00 | 0.00 | 59 | 1012.6 |
| 20260506211502 | 67 | 232 | 3.0 | 5.0 | 0.00 | 0.00 | 0.00 | 58 | 1012.7 |
| 20260506211003 | 68 | 211 | 3.0 | 5.0 | 0.00 | 0.00 | 0.00 | 58 | 1012.6 |
| 20260506210503 | 68 | 238 | 3.0 | 5.0 | 0.00 | 0.00 | 0.00 | 58 | 1012.6 |
| 20260506210003 | 68 | 254 | 3.0 | 5.0 | 0.00 | 0.00 | 0.00 | 57 | 1012.6 |
| 20260506205503 | 68 | 249 | 2.0 | 5.0 | 0.00 | 0.00 | 0.00 | 57 | 1012.6 |
| 20260506205003 | 68 | 217 | 1.0 | 4.0 | 0.00 | 0.00 | 0.00 | 57 | 1012.4 |
| 20260506204500 | 68 | 210 | 1.0 | 4.0 | 0.00 | 0.00 | 0.00 | 57 | 1012.4 |
| 20260506204003 | 68 | 200 | 1.0 | 4.0 | 0.00 | 0.00 | 0.00 | 57 | 1012.4 |
| 20260506203503 | 68 | 193 | 1.0 | 4.0 | 0.00 | 0.00 | 0.00 | 57 | 1012.3 |
| 20260506203004 | 68 | 225 | 0.0 | 4.0 | 0.00 | 0.00 | 0.00 | 57 | 1012.4 |
| 20260506202004 | 68 | 196 | 0.0 | 3.0 | 0.00 | 0.00 | 0.00 | 57 | 1012.2 |
| 20260506201504 | 68 | 180 | 0.0 | 1.0 | 0.00 | 0.00 | 0.00 | 57 | 1012.3 |
| 20260506201003 | 69 | 158 | 1.0 | 5.0 | 0.00 | 0.00 | 0.00 | 57 | 1012.3 |
| 20260506200503 | 69 | 158 | 3.0 | 8.0 | 0.00 | 0.00 | 0.00 | 57 | 1012.2 |
| 20260506200004 | 69 | 138 | 4.0 | 8.0 | 0.00 | 0.00 | 0.00 | 57 | 1012.0 |